Wind_Speed
41 41 42 42 42 43 44 43 43 43 44 44 43 43 43 43 43 43 43 43 43 42 43 43 44 44 45 46 47 48 49 49 49 49 48 47 46 45 44 44 43 42 41
42 42 43 42 42 43 44 44 44 44 44 44 44 44 44 45 45 45 45 45 44 44 44 43 44 45 45 46 47 48 49 50 51 51 51 49 49 48 46 46 46 44 43
43 43 42 42 42 43 43 44 44 44 45 45 45 45 45 45 45 45 45 45 45 46 46 45 46 46 46 47 47 48 49 51 52 51 52 52 51 50 49 48 48 47 46
42 43 43 43 43 43 44 44 44 45 45 45 46 45 45 45 46 46 46 46 47 47 47 47 47 48 48 47 48 49 49 50 51 52 53 53 53 52 51 50 50 49 48
41 41 41 42 43 43 44 44 45 45 45 45 46 46 46 45 46 46 46 47 48 48 48 47 48 48 47 48 49 49 49 50 51 51 52 53 53 53 53 51 51 51 50
40 40 40 41 42 42 43 43 44 45 45 46 46 46 46 46 46 47 47 47 47 48 49 49 48 48 48 48 49 50 50 51 52 51 52 52 53 53 54 53 52 53 52
39 39 40 40 41 41 42 42 43 44 45 46 46 47 47 48 48 49 49 48 48 48 49 49 49 48 47 48 49 51 51 52 52 52 52 53 53 54 54 54 54 55 54
38 39 39 40 40 40 41 41 42 43 44 45 46 46 47 48 49 49 49 50 49 49 50 50 49 48 49 49 50 51 51 52 52 52 53 53 53 54 55 55 55 56 55
38 39 39 40 40 41 41 41 42 43 44 44 45 46 47 48 49 50 50 50 50 50 49 50 50 49 49 50 50 51 52 52 52 53 53 53 53 53 54 54 54 55 55
37 38 39 40 41 42 42 42 42 43 43 44 45 47 48 48 49 49 50 51 50 49 50 50 50 50 50 51 51 52 52 52 53 54 53 53 53 53 54 54 55 56 56
37 38 38 39 41 42 43 43 43 44 44 45 45 46 48 48 49 49 49 50 51 51 50 50 50 50 50 50 50 51 52 52 53 54 54 54 53 53 53 54 54 55 55
37 37 38 39 40 41 42 44 45 45 45 45 46 46 46 47 48 49 49 49 50 51 52 52 51 50 51 51 50 51 52 53 53 53 54 54 54 53 53 53 53 54 55
35 36 37 38 39 41 42 43 44 45 45 46 46 46 46 46 47 48 48 49 50 50 51 53 52 52 51 51 52 52 52 53 53 53 53 54 53 52 53 53 53 54 55
35 35 36 37 38 40 41 42 43 44 45 46 46 46 46 45 45 46 47 48 49 49 50 51 53 53 53 53 53 53 52 53 53 53 53 52 52 52 52 52 52 53 54
35 36 36 36 37 38 39 40 41 42 43 44 45 45 45 45 45 46 46 46 47 48 49 49 51 52 53 53 53 52 52 52 52 52 52 52 52 52 52 52 53 54 54
36 36 36 37 37 37 37 38 39 40 40 41 42 42 43 43 44 44 45 45 45 46 47 48 49 50 51 52 52 52 51 50 51 51 52 52 52 52 52 53 54 54 54
35 35 36 36 37 37 37 37 37 37 38 39 39 40 41 42 42 43 43 43 44 44 45 46 47 48 49 50 51 50 49 49 50 50 51 51 51 51 52 53 54 55 55
33 34 35 36 36 36 37 37 36 37 37 38 38 39 40 41 41 41 42 43 43 43 43 43 44 46 47 48 49 49 49 49 50 50 50 51 51 52 52 52 54 55 55
33 33 34 35 35 35 36 36 36 36 36 36 37 38 39 40 40 40 41 41 41 41 41 41 42 43 44 46 47 48 48 49 49 50 50 50 51 52 52 52 52 52 53
32 32 32 32 32 33 34 34 34 35 35 35 36 37 38 38 38 38 39 39 39 39 39 40 41 43 44 45 46 47 48 48 48 49 49 48 49 50 51 51 51 51 51
31 31 31 31 31 31 32 32 33 34 34 35 35 36 36 37 37 37 38 38 39 38 39 39 40 40 42 43 45 46 47 47 48 48 48 47 47 48 49 49 50 50 50
30 30 30 30 30 30 31 31 32 32 33 33 33 33 33 34 35 36 37 39 39 40 39 39 39 39 40 41 43 44 45 46 47 47 48 47 47 47 47 48 49 50 51
29 29 29 29 30 30 30 31 31 32 32 32 32 32 32 32 33 35 36 37 38 38 38 38 38 38 38 40 41 43 44 45 46 47 48 48 48 48 48 47 48 49 50
27 27 28 28 28 29 29 30 30 30 30 30 31 31 31 31 32 33 34 35 36 37 37 37 37 38 38 39 41 41 42 43 44 46 47 48 48 48 48 48 47 48 49
26 26 26 27 27 27 28 27 28 27 27 27 28 29 30 30 30 30 31 33 34 34 35 35 36 37 38 39 40 41 42 43 43 44 46 46 47 47 48 48 47 47 47
25 25 26 26 26 26 26 26 26 26 26 26 27 28 27 27 28 28 29 31 32 33 33 33 34 35 36 37 39 39 40 40 41 42 43 45 46 46 46 46 46 46 46
Wind_Direction
264 263 262 261 260 260 259 259 258 257 256 256 257 257 257 256 255 256 256 257 257 257 257 257 255 254 252 251 249 247 246 245 244 244 243 243 243 243 244 245 245 245 246
263 262 262 261 260 260 259 259 258 257 256 257 257 256 256 255 254 254 255 256 257 257 257 257 256 254 252 251 249 248 246 245 244 244 244 243 243 243 243 244 245 246 246
263 262 262 262 261 260 259 259 258 258 257 257 257 257 257 256 255 254 256 256 257 257 257 256 256 255 253 252 250 248 245 244 244 245 245 244 244 243 244 244 246 246 246
263 262 262 262 261 261 260 259 258 257 257 257 258 257 257 256 255 254 255 256 256 257 257 256 256 255 253 252 250 249 247 245 245 245 244 244 244 244 244 245 246 246 246
264 262 261 261 261 261 261 259 258 258 258 258 257 256 256 256 255 255 254 255 256 257 258 257 255 254 252 251 250 248 247 247 246 245 245 245 245 245 244 245 246 245 246
263 262 262 261 261 261 261 260 259 259 259 258 258 257 256 256 256 256 256 257 257 258 258 257 255 253 252 250 249 248 248 248 246 246 246 246 246 246 245 246 246 245 246
263 263 262 262 262 261 260 260 259 259 259 259 259 258 257 257 257 257 257 257 258 258 258 257 255 253 252 251 249 248 248 248 247 247 247 247 247 246 247 246 246 246 246
264 264 263 262 262 261 261 260 260 260 259 259 259 259 259 258 258 258 257 257 257 258 257 256 254 252 252 251 249 247 248 247 247 247 246 247 247 247 248 247 247 246 246
266 265 264 264 263 262 261 260 260 260 260 259 260 260 260 259 259 259 258 258 258 257 256 255 254 253 252 250 250 249 248 248 247 247 246 246 247 247 248 248 246 245 245
269 266 265 265 263 262 261 261 261 261 261 260 260 260 260 260 259 259 259 258 256 255 254 254 254 253 252 251 250 250 248 248 247 246 246 246 247 247 248 248 246 245 244
272 269 267 266 264 263 263 262 262 262 262 262 261 261 261 260 259 259 259 258 256 254 252 252 252 252 252 251 250 250 250 248 247 246 246 246 246 247 248 248 247 245 243
273 271 269 267 266 266 265 263 263 263 263 263 263 263 262 261 260 260 259 258 255 254 253 252 252 251 251 251 251 251 250 249 247 247 246 246 245 246 247 247 247 246 244
275 274 272 270 269 268 268 266 265 264 263 263 263 263 263 262 261 260 259 257 255 253 253 253 251 250 250 251 251 251 251 249 248 247 247 246 245 245 245 246 247 247 245
276 275 274 273 272 271 270 268 266 265 264 263 263 263 263 263 262 261 259 257 255 254 253 253 251 251 251 251 251 251 251 249 248 246 246 245 244 245 245 245 247 247 245
278 277 275 274 274 274 272 271 269 267 265 264 263 263 263 263 262 261 259 257 256 255 254 252 252 251 250 251 250 249 249 248 247 246 246 245 245 245 245 246 247 246 245
278 277 276 275 275 274 274 273 271 269 267 266 265 264 263 263 262 261 258 256 256 255 254 252 252 250 250 249 248 247 246 246 246 246 246 246 246 246 246 246 246 246 246
279 279 278 277 277 276 275 274 272 270 269 268 267 265 264 263 262 261 258 257 256 255 255 253 251 250 249 248 247 246 246 246 246 245 245 246 246 246 246 245 245 246 247
282 283 282 280 279 277 275 274 273 272 271 270 268 266 265 264 263 261 258 257 255 255 254 253 251 251 249 248 247 246 247 246 246 245 245 245 245 246 245 245 246 247 248
284 284 284 282 280 277 276 275 274 273 273 272 270 268 266 265 263 261 258 257 256 255 254 254 253 252 251 249 248 247 247 247 246 246 246 246 245 245 246 246 247 248 249
285 285 285 284 282 279 277 276 274 273 273 273 272 270 268 266 263 261 259 257 257 256 255 255 254 253 252 251 250 249 248 248 247 246 246 246 246 246 247 248 248 249 250
289 288 286 285 284 281 279 277 276 274 273 274 274 272 270 267 264 260 258 257 257 258 257 258 257 255 253 251 251 250 248 247 247 247 246 245 245 245 246 247 248 249 250
292 291 289 286 285 283 281 280 278 276 276 275 274 273 271 268 264 260 259 258 258 258 258 258 258 256 254 252 250 250 249 249 248 246 246 245 245 245 246 248 249 250 250
294 292 291 288 286 284 283 283 280 279 277 275 273 272 271 270 266 262 261 260 259 258 258 258 257 255 254 252 251 250 250 250 248 247 246 246 246 247 248 249 250 251 251
296 294 293 291 289 287 286 284 282 280 278 276 274 273 272 271 268 264 262 262 261 260 259 258 256 254 253 253 252 251 250 249 249 248 246 246 246 247 248 249 251 251 252
299 297 296 294 292 290 288 286 284 281 278 277 276 275 273 271 268 265 263 262 261 261 260 258 256 255 254 254 254 253 252 251 250 248 247 246 246 247 248 249 251 252 253
301 300 298 297 294 291 289 287 285 282 279 279 278 277 274 272 269 266 265 264 262 261 259 259 258 256 255 254 254 254 253 252 251 250 248 246 245 246 248 249 250 251 252
Height
5671 5670 5670 5671 5671 5672 5673 5673 5675 5676 5677 5679 5680 5681 5682 5683 5684 5686 5687 5689 5691 5692 5693 5695 5696 5698 5700 5702 5705 5708 5712 5716 5720 5724 5728 5733 5736 5740 5744 5747 5750 5753 5756
5659 5659 5659 5659 5659 5660 5661 5662 5663 5664 5665 5667 5668 5669 5670 5672 5673 5674 5676 5678 5679 5681 5682 5683 5685 5686 5689 5691 5693 5696 5699 5703 5707 5711 5716 5720 5725 5729 5733 5736 5740 5743 5745
5646 5646 5647 5647 5647 5648 5649 5650 5651 5652 5653 5655 5656 5657 5658 5659 5661 5663 5665 5666 5667 5669 5670 5671 5673 5674 5677 5679 5681 5684 5687 5691 5695 5698 5703 5708 5712 5717 5721 5725 5728 5731 5735
5634 5634 5634 5635 5636 5636 5637 5638 5639 5640 5641 5643 5644 5645 5646 5648 5649 5651 5653 5654 5655 5656 5658 5659 5660 5662 5664 5666 5669 5671 5675 5678 5682 5685 5689 5694 5699 5703 5709 5713 5716 5720 5723
5622 5622 5622 5623 5623 5624 5624 5625 5626 5627 5629 5630 5631 5632 5634 5635 5637 5638 5640 5641 5643 5644 5645 5646 5648 5649 5651 5653 5656 5659 5662 5665 5669 5673 5677 5681 5685 5690 5695 5700 5703 5707 5711
5610 5610 5610 5610 5611 5611 5612 5613 5614 5615 5616 5617 5618 5620 5621 5623 5624 5626 5627 5628 5630 5631 5632 5633 5634 5635 5637 5640 5643 5646 5649 5652 5656 5660 5664 5668 5672 5676 5681 5686 5690 5694 5698
5598 5598 5598 5599 5599 5599 5600 5600 5601 5602 5603 5604 5606 5607 5608 5610 5611 5612 5614 5615 5616 5617 5618 5619 5621 5622 5624 5626 5629 5633 5636 5639 5643 5647 5651 5654 5658 5662 5667 5672 5676 5680 5685
5586 5586 5587 5587 5587 5587 5588 5588 5589 5590 5590 5591 5592 5594 5595 5596 5598 5599 5600 5601 5603 5604 5604 5605 5607 5609 5611 5613 5615 5619 5622 5626 5629 5633 5637 5641 5645 5648 5653 5657 5661 5666 5671
5574 5574 5574 5575 5575 5575 5576 5576 5577 5577 5577 5578 5579 5580 5581 5582 5584 5585 5586 5587 5588 5589 5590 5591 5593 5595 5597 5599 5602 5605 5608 5612 5615 5619 5623 5627 5631 5635 5638 5642 5646 5651 5656
5563 5562 5562 5562 5562 5562 5563 5563 5564 5565 5565 5565 5566 5566 5567 5568 5569 5570 5572 5573 5574 5575 5576 5578 5580 5581 5583 5586 5588 5591 5594 5598 5601 5605 5609 5613 5617 5621 5625 5628 5632 5636 5641
5551 5550 5550 5550 5550 5550 5550 5550 5551 5551 5552 5552 5552 5553 5553 5554 5555 5556 5557 5558 5559 5561 5563 5564 5566 5568 5570 5572 5574 5578 5581 5584 5587 5591 5595 5599 5603 5607 5611 5614 5618 5622 5627
5540 5539 5538 5538 5538 5537 5537 5537 5538 5538 5538 5538 5539 5539 5539 5540 5541 5542 5543 5544 5545 5547 5548 5550 5552 5554 5556 5559 5561 5564 5567 5570 5573 5577 5581 5585 5589 5593 5597 5601 5604 5609 5613
5528 5527 5527 5526 5525 5525 5524 5524 5524 5524 5525 5525 5525 5525 5525 5526 5527 5528 5529 5529 5531 5532 5534 5535 5538 5540 5543 5545 5548 5550 5553 5556 5560 5563 5567 5571 5575 5579 5583 5587 5591 5595 5599
5518 5516 5515 5514 5513 5512 5512 5511 5511 5511 5511 5511 5511 5511 5512 5512 5513 5514 5514 5516 5517 5518 5520 5521 5523 5526 5528 5531 5533 5536 5539 5542 5546 5549 5553 5557 5561 5566 5570 5574 5578 5581 5585
5507 5506 5505 5503 5502 5501 5499 5498 5498 5498 5497 5497 5498 5498 5498 5498 5499 5500 5500 5501 5503 5504 5505 5507 5509 5511 5513 5516 5519 5522 5525 5528 5531 5535 5539 5544 5548 5552 5556 5560 5564 5567 5572
5496 5495 5493 5492 5491 5489 5488 5486 5485 5485 5484 5484 5484 5484 5484 5484 5485 5486 5487 5488 5489 5490 5491 5493 5495 5497 5499 5502 5504 5507 5511 5514 5518 5521 5525 5530 5534 5538 5542 5546 5550 5554 5558
5485 5484 5482 5481 5479 5477 5476 5475 5474 5473 5472 5472 5471 5471 5471 5471 5472 5472 5473 5474 5476 5477 5478 5479 5481 5483 5486 5488 5491 5493 5497 5501 5504 5508 5512 5516 5520 5524 5528 5532 5535 5540 5543
5475 5473 5471 5469 5467 5466 5464 5463 5462 5462 5461 5460 5459 5459 5459 5459 5459 5459 5460 5461 5463 5464 5465 5466 5468 5470 5472 5475 5478 5481 5484 5487 5491 5495 5499 5503 5506 5511 5514 5518 5522 5525 5529
5465 5463 5460 5458 5456 5454 5453 5452 5451 5450 5449 5448 5447 5447 5446 5446 5446 5447 5448 5449 5450 5451 5452 5454 5455 5457 5459 5462 5465 5468 5471 5475 5478 5482 5486 5489 5493 5498 5501 5505 5508 5512 5515
5455 5452 5450 5447 5445 5443 5442 5441 5440 5439 5438 5437 5436 5435 5434 5434 5434 5435 5435 5436 5438 5439 5440 5441 5442 5444 5447 5449 5452 5455 5459 5463 5466 5470 5473 5477 5480 5484 5487 5491 5494 5498 5501
5445 5443 5440 5438 5435 5433 5432 5430 5429 5428 5427 5426 5424 5423 5422 5422 5422 5423 5424 5425 5426 5427 5428 5429 5430 5432 5434 5436 5439 5442 5445 5449 5453 5456 5460 5463 5467 5470 5474 5477 5481 5484 5487
5436 5433 5430 5428 5425 5423 5422 5420 5419 5417 5416 5415 5413 5412 5411 5411 5411 5412 5412 5413 5414 5415 5416 5417 5418 5420 5422 5424 5427 5430 5432 5436 5439 5443 5446 5450 5453 5457 5460 5463 5467 5470 5472
5427 5424 5421 5418 5416 5414 5412 5410 5408 5407 5405 5404 5403 5402 5401 5400 5400 5400 5401 5401 5402 5403 5404 5405 5407 5408 5410 5412 5414 5417 5420 5422 5426 5429 5432 5436 5440 5443 5447 5450 5452 5455 5458
5419 5415 5412 5410 5407 5405 5403 5400 5398 5396 5395 5394 5393 5392 5391 5390 5389 5389 5390 5390 5391 5391 5392 5393 5395 5396 5398 5400 5402 5404 5407 5410 5412 5415 5419 5422 5426 5429 5433 5436 5439 5441 5444
5411 5408 5405 5402 5399 5396 5394 5391 5389 5387 5386 5385 5384 5382 5381 5380 5379 5379 5379 5379 5380 5380 5381 5382 5383 5385 5386 5388 5390 5392 5395 5398 5400 5403 5406 5409 5413 5416 5419 5423 5426 5428 5431
5404 5400 5397 5394 5391 5388 5385 5383 5380 5379 5377 5376 5375 5373 5372 5371 5370 5370 5369 5369 5369 5369 5370 5371 5372 5373 5375 5376 5378 5380 5383 5385 5387 5390 5393 5397 5400 5403 5406 5410 5413 5415 5418